星链-32268 (STARLINK-32268)

导读

STARLINK-32268是美国SpaceX公司星链(Starlink)互联网星座的成员卫星,于2024年8月4日发射入轨。星链项目旨在通过部署近地轨道卫星网络,为全球尤其是基础设施匮乏地区提供高速、低延迟的宽带互联网服务。该卫星的成功入轨,进一步扩充了星链星座的规模,推动全球卫星互联网覆盖能力持续提升,助力偏远地区网络接入与全球互联互通建设。

基本信息
目录编号:
60372
目录名称:
STARLINK-32268
国际标识:
2024-138T
轨道中心:
EARTH
卫星名称:
星链-32268 (STARLINK-32268)
卫星全名:
星链-32268 (STARLINK-32268)
卫星状态:
在轨 (已飞行761 天)
发射日期:
2024-08-04 UTC
国别 :
美国 (US)
星等 :
--
轨道信息
数据来源 国际轨道数据
星历时间: 2026-09-03T14:35:07+0800
1天前
查看轨道信息
半长轴: 6840.868km
偏心率: 0.0001388
轨道倾角: 53.158°
近地点辐角 84.333°
升交点赤经 204.244°
平近点角 275.783°
近地点: 461.781km
远地点: 463.681km
周期: 93.848分钟
每日圈数: 15.343908
详细信息
卫星平台:
Starlink v2.0 mini
运营商:
太空探索技术公司
运营商所在国:
美国
制造商(研发单位):
太空探索技术公司
制造商所在国:
美国
使用方式:
暂无
卫星简介
星链(Starlink)计划是由太空探索技术公司(SpaceX)提出的一个巨型低轨卫星互联网星座项目,计划在2019年至2024年间在太空搭建由约1.2万颗卫星组成的“星链”网络,其中1584颗将部署在地球上空550千米处的近地轨道,并从2020年开始工作。该卫星仍在工作。
2D轨道图
3D轨道图
轨道高度分析图
轨道倾角分析图
轨道综合分析图
查看轨道综合分析图
交会数据列表
事件ID 空间交会对象 最接近时刻(TCA) 交会距离 交会风险概率(CRP) 交会风险指数(CRI) 操作
CDM_260904-112406-037206-343223
2026-09-04T
11:24:54+0000
1.497 km
极远距离
5.528838E-6 低风险 0.5
CDM_260831-062306-037206-688122
2026-08-31T
06:23:29+0000
1.409 km
极远距离
5.11335E-6 低风险 0.49
CDM_260831-044906-037206-688122
2026-08-31T
04:49:41+0000
1.987 km
极远距离
1.872749E-6 低风险 0.4
CDM_260906-011305-274406-037221
2026-09-06T
01:13:58+0000
2.577 km
极远距离
1.637983E-6 低风险 0.39